Location: Losili
(4.4086°N, 32.7049°E)
Time: 10:37:11
(UTC+00:00)

Cosmos 2056 Rocket - Pass Details

Date: 18 September 2019
Orbit: 742 x 800 km, 74.0° (Epoch: 15 October)

Event Time Altitude Azimuth Distance (km) Brightness Sun altitude
Rises 16:14:33 0° 172° (S) 3,272 6.7 -7.6°
Reaches altitude 10° 16:17:12 10° 162° (SSE) 2,351 5.8 -8.3°
Maximum altitude 16:21:50 30° 101° (ESE) 1,393 4.3 -9.4°
Drops below altitude 10° 16:26:29 10° 41° (NE) 2,364 5.7 -10.6°
Sets 16:29:08 0° 31° (NNE) 3,294 6.5 -11.3°
